weather.gov     
National Weather Service

Regional Weather Roundup
NWS Homepage
This page is being discontinued on March 12, 2014.
The same data is available at this site. Please update your bookmarks.
Thank you, and we apologize for the inconvenience.
Please send an email to SR-SRH.Webmaster@noaa.gov with any concerns.


Current Version
Previous Version:    01  02  03  04  05  06  07  08  09  10  11  12  13  14  15  16  17  18  19  20  21  22  23  24  25  26  27  28  29  30  
   31  32  33  34  35  36  37  38  39  40  41  42  43  44  45  46  47  48  49  50  51  52  53  54  
[Printable]
778
ASUS41 KCTP 011010
RWRCTP

REGIONAL WEATHER ROUNDUP
NATIONAL WEATHER SERVICE STATE COLLEGE PA
500 AM EST SUN FEB 01 2015

Note: "fair" indicates few or no clouds below 12,000 feet with no
significant weather and/or obstructions to visibility.

* = STATION THAT DOES NOT REPORT PRECIPITATION /E.G. RAIN...SNOW...ETC/
    THUNDER OR FOG.

PAZ002>004-007>009-013>016-020>023-029>032-011100-
WESTERN PENNSYLVANIA

CITY           SKY/WX    TMP DP  RH WIND       PRES   REMARKS
ERIE           CLOUDY    29  21  72 CALM      30.16F
MEADVILLE      LGT SNOW  25  19  78 S5        30.12S
FRANKLIN*      CLOUDY    25  16  68 SW6       30.14S
NEW CASTLE     LGT SNOW  26  24  92 CALM      30.17F FOG
BEAVER COUNTY  NOT AVBL
BUTLER*        CLOUDY    25  21  86 S3        30.17F
PITTSBURGH INT LGT SNOW  28  22  78 S3        30.16F
PITTSBURGH     LGT SNOW  26  15  63 S7        30.16S
INDIANA*       CLOUDY    25  19  80 SW6       30.20S
LATROBE        MIX PCPN  28  21  74 S8        30.20S
WASHINGTON CO* CLOUDY    27  23  86 S3        30.19S
$$

PAZ004>006-010>012-017>019-024>028-033>037-041-042-045-046-049>053-011100-
CENTRAL PENNSYLVANIA

CITY           SKY/WX    TMP DP  RH WIND       PRES   REMARKS
BRADFORD       CLOUDY    21  18  88 CALM      30.08S FOG
DUBOIS         CLOUDY    22  16  78 SW5       30.11S
CLEARFIELD     CLOUDY    20  14  77 SW3       30.14S
JOHNSTOWN      CLOUDY    25  15  66 SW6       30.09F
ALTOONA        CLOUDY    27  17  66 S3        30.15F
STATE COLLEGE  CLOUDY    26  17  68 W3        30.17S
WILLIAMSPORT   CLOUDY    22  12  65 W8        30.20S WCI  12
SELINSGROVE    CLOUDY    19  13  77 CALM      30.22S
FT INDIANTOWN  CLOUDY    22  13  67 SW6       30.22S WCI  15
CAPITAL CITY   CLOUDY    21  13  71 CALM      30.23S
HARRISBURG     CLOUDY    18  12  77 CALM      30.23S
YORK           CLOUDY    22  15  75 CALM      30.22F
$$

PAZ038>040-043-044-047-048-054-055-060>062-067>071-011100-
EASTERN PENNSYLVANIA

CITY           SKY/WX    TMP DP  RH WIND       PRES   REMARKS
SCRANTON       CLOUDY    21  11  65 S6        30.15R WCI  13
MOUNT POCONO   CLOUDY    18  10  71 W9        30.06R WCI   7
ALLENTOWN      CLOUDY    25  13  60 SW9       30.20R
QUAKERTOWN*    CLOUDY    23  14  68 W5        30.21R
READING        CLOUDY    22  15  75 CALM      30.22R
LANCASTER      CLOUDY    19  10  68 CALM      30.23S
COATESVILLE    CLOUDY    27  16  63 W8        30.22R
POTTSTOWN      CLOUDY    24  12  60 W5        30.24R
BLUE BELL      CLOUDY    27  14  59 CALM      30.23R
DOYLESTOWN     CLOUDY    22  12  65 SW6       30.21R WCI  14
WILLOW GROVE   NOT AVBL
NORTH PHILA    CLOUDY    27  12  53 W3        30.26R
PHILADELPHIA   CLOUDY    24  14  65 SW3       30.26S
$$




U.S. Dept. of Commerce
NOAA National Weather Service
1325 East West Highway
Silver Spring, MD 20910
E-mail: w-nws.webmaster@noaa.gov
Page last modified: May 16, 2007
NATIONAL WEATHER SERVICE: for Safety, for Work, for Fun - FOR LIFE